Hourly Data Report for September 07, 2017

All times are specified in Local Standard Time (LST). Add 1 hour to adjust for Daylight Saving Time where and when it is observed.

GJOA HAVEN A
NUNAVUT

68°38'08.000" N
95°51'01.000" W
46.90 m
2302337
71597
YHK

Download Data

Hourly Data (September 2017)
Hourly Data Report for September 7, 2017
Temp Definition
°C
Dew Point Temp Definition
°C
Rel Hum Definition
%
Wind Dir Definition
10's deg

Wind Spd Definition
km/h
Visibility Definition
km
Stn Press Definition
kPa
Hmdx Definition


Wind Chill Definition


Weather Definition


TIME
00:00 Legend Double Dagger 4.7 3.4 91 12 11 16.1 100.49     LegendNANA
01:00 Legend Double Dagger 4.7 3.5 92 11 13 16.1 100.45     LegendNANA
02:00 Legend Double Dagger 4.4 3.4 93 12 13 16.1 100.38     LegendNANA
03:00 Legend Double Dagger 4.0 3.4 96 11 11 16.1 100.35     LegendNANA
04:00 Legend Double Dagger 3.9 3.6 98 6 8 16.1 100.33     LegendNANA
05:00 Legend Double Dagger 3.6 3.3 98 1 11 16.1 100.28     LegendNANA
06:00 Legend Double Dagger 3.7 3.4 98 2 11 16.1 100.25     LegendNANA
07:00 Legend Double Dagger 4.3 3.4 94 3 13 16.1 100.24     LegendNANA
08:00 Legend Double Dagger 5.3 3.3 87 1 13 16.1 100.21     LegendNANA
09:00 Legend Double Dagger 5.5 3.6 87 6 9 16.1 100.19     LegendNANA
10:00 Legend Double Dagger 5.6 3.2 84 7 8 16.1 100.18     LegendNANA
11:00 Legend Double Dagger 5.7 3.7 87 LegendMM 4 16.1 100.17     LegendNANA
12:00 Legend Double Dagger 5.5 3.6 87 19 9 16.1 100.15     LegendNANA
13:00 Legend Double Dagger 5.8 3.5 85 21 9 16.1 100.12     LegendNANA
14:00 Legend Double Dagger 5.8 3.4 85 18 11 16.1 100.07     LegendNANA
15:00 Legend Double Dagger 5.5 3.4 86 19 8 16.1 100.05     LegendNANA
16:00 Legend Double Dagger 5.3 3.5 88 15 5 16.1 100.05     LegendNANA
17:00 Legend Double Dagger 5.0 3.7 91 10 9 16.1 100.01     LegendNANA
18:00 Legend Double Dagger 4.1 3.5 96 5 17 9.7 99.98     Fog
19:00 Legend Double Dagger 4.0 3.0 93 5 13 16.1 99.93     LegendNANA
20:00 Legend Double Dagger 3.5 2.5 93 5 17 16.1 99.86     LegendNANA
21:00 Legend Double Dagger 2.8 1.9 94 4 21 16.1 99.81     LegendNANA
22:00 Legend Double Dagger 2.4 1.7 95 6 21 16.1 99.73     LegendNANA
23:00 Legend Double Dagger 2.2 1.5 95 5 22 16.1 99.63     LegendNANA

Notes on Data Quality.

Legend

  • E = Estimated
  • M = Missing
  • NA = Not Available
  • ‡ = Partner data that is not subject to review by the National Climate Archives
Date modified: